[[{"header":{"parameterUnit":"m.s-1","parameterCategory":1,"la1":30.2991,"la2":30.254,"lo1":-89.0895,"lo2":-89.0444,"dy":0.0017,"dx":0.0017,"nx":28,"ny":28,"refTime":"2025-07-07T03:00:00:Z","depth":0,"parameterNumber":2,"parameterNumberName":"U-component_of_WINDS"},"data":[0,0,0,0,0,0,0,0,0,0,0,0,0,0,0,0,0,0,0,0,0,0,0,0,0,0,0,0,0,0,0,0,0,0,0,0,0,0,0,0,0,0,0,0,0,0,0,0,0,0,0,0,0,0,0,0,0,0,2.0968,2.097,0,2.1146,2.1148,2.115,2.1206,2.1205,2.1204,2.1203,2.1388,2.1393,2.1399,0,0,0,0,0,0,0,0,0,0,0,0,0,2.0676,2.0681,2.0968,2.097,2.0972,2.1146,2.1148,2.1151,2.1206,2.1205,2.1204,2.1203,2.1386,2.1393,2.1399,0,0,0,0,0,0,0,0,0,0,0,0,0,2.0823,2.0683,2.0967,2.1021,2.1027,2.1145,2.1148,2.1151,2.1206,2.1205,2.1204,2.1202,2.1384,2.1392,2.14,2.1479,0,0,2.1427,2.143,0,0,0,0,0,0,0,0,2.0815,2.0834,2.1011,2.1017,2.1025,2.1152,2.1113,2.1261,2.1207,2.1138,2.1203,2.1202,2.1311,2.1325,2.1361,2.1487,2.1495,2.1427,2.1432,2.1436,2.1439,0,0,0,0,0,0,0,2.0805,2.0827,2.1038,2.1013,2.1022,2.1036,2.1055,2.1141,2.1229,2.1144,2.1149,2.1169,2.1314,2.1353,2.1366,2.1498,2.1427,2.1435,2.144,2.1443,2.1696,2.1697,0,0,0,0,0,0,2.0785,2.0818,2.1033,2.1044,2.0914,2.1042,2.1064,2.1113,2.1229,2.1245,2.117,2.1171,2.1339,2.1356,2.1373,2.1471,2.1436,2.1444,2.1449,2.1694,2.1696,2.1698,0,0,0,0,0,0,2.0779,2.0804,2.1025,2.0932,2.0961,2.1049,2.1103,2.1117,2.1156,2.1248,2.1264,2.1193,2.1339,2.1361,2.1452,2.1478,2.1448,2.1456,2.1693,2.1695,2.1697,2.1669,0,0,0,0,0,0,2.077,2.0801,2.0832,2.0932,2.0966,2.1101,2.1105,2.1121,2.117,2.1173,2.1274,2.129,2.1339,2.1438,2.146,2.149,2.1462,2.169,2.1694,2.1696,2.1668,2.167,2.1672,0,0,0,0,0,2.0759,2.0817,2.0833,2.0859,2.1006,2.1102,2.1122,2.1177,2.1172,2.1203,2.1262,2.1287,2.1472,2.1447,2.1472,2.1505,2.1689,2.1693,2.1696,2.1667,2.1669,2.1672,0,0,0,0,0,0,2.0718,2.0831,2.085,2.0942,2.1012,2.1111,2.1153,2.1178,2.1252,2.1251,2.1318,2.134,2.1426,2.1475,2.1445,2.1586,2.1581,2.159,2.1551,2.1554,2.1556,2.1542,2.147,0,0,0,0,0,2.072,2.0788,2.0884,2.0956,2.099,2.1065,2.1109,2.1145,2.1221,2.1251,2.1317,2.1389,2.1464,2.1512,2.1586,2.1675,2.1697,2.171,2.1712,2.1713,2.1719,2.1769,2.1775,2.171,2.171,2.171,0,0,2.0724,2.0794,2.0834,2.0949,2.1008,2.1077,2.109,2.1163,2.1215,2.1262,2.1352,2.1402,2.1488,2.1578,2.1621,2.1621,2.1742,2.1717,2.1718,2.1724,2.1773,2.1779,2.1785,2.1712,2.1712,2.1711,0,0,2.0767,2.0827,2.0893,2.0951,2.1039,2.1089,2.1104,2.12,2.1235,2.1325,2.1362,2.1425,2.1553,2.1611,2.1658,2.1722,2.1746,2.1744,2.1754,2.1802,2.1807,2.1812,2.1834,2.1841,2.175,2.175,2.175,0,2.0761,2.0866,2.0924,2.0995,2.1044,2.1089,2.1156,2.121,2.1318,2.1351,2.135,2.1509,2.157,2.1674,2.1689,2.1726,2.1745,2.1733,2.1802,2.1807,2.1813,2.1834,2.1842,2.1749,2.1749,2.1749,2.175,0,2.0854,2.0927,2.0969,2.1071,2.1126,2.1194,2.1262,2.131,2.1342,2.1391,2.1482,2.1556,2.1645,2.1673,2.1705,2.1781,2.1778,2.1788,2.1785,2.1817,2.1838,2.1847,2.1748,2.1748,2.1749,2.1749,0,0,2.0876,2.1008,2.1022,2.1069,2.1169,2.1226,2.1296,2.1383,2.1422,2.1495,2.1555,2.1661,2.1671,2.1724,2.1763,2.1805,2.1849,2.181,2.1813,2.1813,2.1936,2.1927,2.1935,2.1865,2.1867,2.1869,2.1928,0,2.0931,2.1058,2.1111,2.1213,2.1281,2.1324,2.1386,2.1453,2.1501,2.1566,2.1619,2.1693,2.17,2.1732,2.1776,2.1834,2.1874,2.1831,2.1922,2.1925,2.1898,2.1947,2.1938,2.199,2.1937,2.1938,2.1939,0,2.1011,2.1083,2.1192,2.1283,2.1313,2.1367,2.145,2.1511,2.1588,2.162,2.1678,2.1715,2.179,2.1782,2.1887,2.1856,2.1896,2.1931,2.1934,2.1944,2.1933,2.1957,2.2008,2.2016,2.1953,2.1952,2.1951,0,2.1015,2.1139,2.122,2.1259,2.1367,2.1404,2.145,2.1527,2.1575,2.1647,2.1679,2.1759,2.1803,2.1865,2.1922,2.1911,2.202,2.2017,2.2049,2.2047,2.2069,2.2067,2.2127,2.2097,2.2097,2.2096,2.2096,0,2.107,2.1135,2.1223,2.1273,2.1346,2.1407,2.1478,2.1528,2.1595,2.1655,2.1698,2.1754,2.1826,2.1891,2.1936,2.2015,2.2035,2.2062,2.2074,2.2058,2.2054,2.2085,2.2083,2.2099,2.2098,2.2098,2.2097,0,2.1086,2.1148,2.1239,2.1334,2.1359,2.1409,2.149,2.154,2.1589,2.1664,2.1686,2.1764,2.1842,2.1905,2.2008,2.2038,2.212,2.2133,2.2093,2.2099,2.2126,2.2123,2.2208,2.2221,2.2182,2.2182,2.2183,0,2.1117,2.1167,2.1267,2.131,2.1356,2.1425,2.1474,2.1535,2.1584,2.1676,2.1714,2.1795,2.1863,2.1986,2.2052,2.213,2.2145,2.217,2.2157,2.214,2.2145,2.214,2.2145,2.2171,2.2171,2.2171,2.2171,0,2.1164,2.1192,2.1261,2.134,2.1397,2.1462,2.1529,2.1561,2.1635,2.1688,2.1768,2.182,2.1924,2.2004,2.2089,2.2137,2.2166,2.2174,2.2185,2.217,2.2144,2.2157,2.2096,2.2172,2.2172,2.2172,2.2172,2.2172,2.1188,2.1235,2.1312,2.1386,2.1443,2.1503,2.1554,2.161,2.1677,2.1766,2.1799,2.188,2.1956,2.2073,2.2122,2.2186,2.2189,2.2206,2.221,2.2213,2.221,2.2134,2.2202,2.2202,2.2202,2.2202,2.2203,0,2.1237,2.1288,2.1356,2.1447,2.1506,2.1528,2.1602,2.1649,2.1721,2.1788,2.1854,2.1945,2.2022,2.2094,2.2174,2.2212,2.2228,2.2231,2.2229,2.2239,2.2204,2.2185,2.2218,2.2218,2.2218,2.2218,2.2218,2.2218,2.1269,2.1348,2.1385,2.1493,2.1544,2.1624,2.1664,2.172,2.1775,2.1874,2.1938,2.1984,2.2053,2.2139,2.221,2.223,2.2257,2.2257,2.2279,2.2244,2.2242,2.224,2.2223,2.2263,2.2263,2.231,2.231,2.231]},{"header":{"parameterUnit":"m.s-1","parameterCategory":1,"la1":30.2991,"la2":30.254,"lo1":-89.0895,"lo2":-89.0444,"dy":0.0017,"dx":0.0017,"nx":28,"ny":28,"refTime":"2025-07-07T03:00:00:Z","depth":0,"parameterNumber":3,"parameterNumberName":"V-component_of_WINDS"},"data":[0,0,0,0,0,0,0,0,0,0,0,0,0,0,0,0,0,0,0,0,0,0,0,0,0,0,0,0,0,0,0,0,0,0,0,0,0,0,0,0,0,0,0,0,0,0,0,0,0,0,0,0,0,0,0,0,0,0,4.4112,4.4112,0,4.4092,4.4092,4.4092,4.4074,4.4074,4.4074,4.4073,4.4052,4.4051,4.4051,0,0,0,0,0,0,0,0,0,0,0,0,0,4.4133,4.4133,4.4112,4.4112,4.4111,4.4092,4.4092,4.4091,4.4074,4.4074,4.4074,4.4073,4.4052,4.4051,4.4051,0,0,0,0,0,0,0,0,0,0,0,0,0,4.4119,4.4133,4.4112,4.41,4.4099,4.4092,4.4092,4.4091,4.4074,4.4074,4.4073,4.4073,4.4052,4.4052,4.4051,4.4053,0,0,4.4049,4.4049,0,0,0,0,0,0,0,0,4.412,4.4119,4.4102,4.4101,4.41,4.4085,4.4091,4.4079,4.4074,4.4084,4.4073,4.4073,4.4063,4.4062,4.4058,4.4052,4.4051,4.4049,4.4049,4.4049,4.4048,0,0,0,0,0,0,0,4.4121,4.4119,4.4104,4.4102,4.4101,4.4096,4.4093,4.4089,4.4075,4.4083,4.4081,4.4079,4.4062,4.4059,4.4058,4.4051,4.4049,4.4049,4.4048,4.4048,4.4044,4.4044,0,0,0,0,0,0,4.4124,4.412,4.4105,4.4103,4.411,4.4095,4.4093,4.409,4.4075,4.4073,4.408,4.4079,4.406,4.4059,4.4057,4.4058,4.4049,4.4048,4.4048,4.4044,4.4044,4.4044,0,0,0,0,0,0,4.4125,4.4123,4.4105,4.4112,4.4109,4.4095,4.4092,4.409,4.4087,4.4073,4.407,4.4079,4.406,4.4058,4.4054,4.4057,4.4048,4.4047,4.4044,4.4044,4.4044,4.406,0,0,0,0,0,0,4.4125,4.4123,4.4125,4.4112,4.4109,4.4104,4.4093,4.409,4.4086,4.4084,4.4072,4.4069,4.406,4.4055,4.4054,4.4056,4.4047,4.4043,4.4044,4.4044,4.4059,4.4061,4.4062,0,0,0,0,0,4.4126,4.413,4.4125,4.4123,4.411,4.4104,4.4102,4.4091,4.4086,4.4087,4.4078,4.4069,4.4057,4.4055,4.4053,4.4055,4.4043,4.4044,4.4044,4.4058,4.406,4.4062,0,0,0,0,0,0,4.4143,4.4128,4.4122,4.4122,4.4114,4.4101,4.4102,4.4094,4.4087,4.4086,4.4073,4.407,4.4067,4.4061,4.4059,4.4056,4.4049,4.4049,4.406,4.4062,4.4063,4.4065,4.4046,0,0,0,0,0,4.4147,4.4144,4.413,4.4131,4.4128,4.4115,4.4112,4.4104,4.4096,4.4093,4.4083,4.4075,4.4069,4.4065,4.4059,4.4058,4.4054,4.4058,4.406,4.4061,4.4062,4.4059,4.4061,4.4046,4.4046,4.4046,0,0,4.4154,4.4146,4.4144,4.4134,4.4128,4.4124,4.4113,4.4109,4.4106,4.4092,4.4088,4.408,4.407,4.4067,4.4066,4.4062,4.4065,4.4062,4.4063,4.4063,4.406,4.4061,4.4062,4.4047,4.4047,4.4047,0,0,4.4166,4.416,4.4159,4.4152,4.4142,4.4134,4.4134,4.4121,4.4116,4.4112,4.4101,4.4096,4.4086,4.4079,4.4074,4.4082,4.4073,4.408,4.4088,4.4086,4.4087,4.4088,4.409,4.4091,4.408,4.408,4.408,0,4.4177,4.4171,4.416,4.4157,4.4152,4.4139,4.4138,4.4132,4.412,4.4117,4.4113,4.4099,4.4092,4.4086,4.4088,4.4085,4.4083,4.4081,4.4088,4.4089,4.4089,4.4091,4.4092,4.4081,4.4081,4.4081,4.4081,0,4.4184,4.418,4.4181,4.417,4.4165,4.4163,4.4151,4.4147,4.414,4.4132,4.4126,4.4116,4.4107,4.4106,4.4098,4.4099,4.4097,4.4091,4.4083,4.4092,4.4093,4.4093,4.4082,4.4082,4.4082,4.4082,0,0,4.4205,4.4188,4.4188,4.4183,4.417,4.4167,4.4164,4.4155,4.4152,4.4144,4.414,4.4132,4.4125,4.412,4.4111,4.4109,4.4115,4.4103,4.4103,4.4105,4.4113,4.4118,4.4119,4.4109,4.4109,4.4109,4.4114,0,4.4214,4.4209,4.4198,4.4195,4.4191,4.4178,4.4175,4.4167,4.4159,4.4153,4.4144,4.4138,4.4131,4.4127,4.4125,4.4115,4.4116,4.4114,4.4105,4.4104,4.4107,4.412,4.4124,4.4129,4.4114,4.4115,4.4115,0,4.4224,4.4217,4.4214,4.4201,4.4198,4.4196,4.4187,4.4182,4.4172,4.4166,4.4159,4.415,4.4144,4.4138,4.413,4.4129,4.4124,4.4119,4.4118,4.4117,4.411,4.4117,4.4131,4.4131,4.4115,4.4115,4.4115,0,4.4239,4.4229,4.4225,4.4221,4.4206,4.4204,4.4198,4.4187,4.4182,4.4174,4.417,4.4161,4.4156,4.4149,4.4137,4.4134,4.413,4.4123,4.4124,4.4124,4.4124,4.4124,4.4136,4.4122,4.4122,4.4122,4.4122,0,4.4249,4.4248,4.4231,4.4229,4.4227,4.4214,4.4212,4.4204,4.4194,4.419,4.4178,4.4174,4.4159,4.4152,4.4143,4.4137,4.4135,4.4129,4.4126,4.413,4.413,4.4126,4.4125,4.4122,4.4122,4.4122,4.4122,0,4.4265,4.4255,4.425,4.4236,4.4232,4.4231,4.4219,4.4215,4.4207,4.4201,4.4198,4.4184,4.4176,4.4164,4.4151,4.4145,4.414,4.4136,4.4144,4.4142,4.4144,4.4144,4.4153,4.4153,4.414,4.414,4.414,0,4.4273,4.4271,4.4257,4.4253,4.4247,4.4241,4.4236,4.4224,4.4219,4.4206,4.4204,4.4195,4.4187,4.4174,4.4162,4.4153,4.4148,4.4152,4.4147,4.415,4.4147,4.4147,4.4146,4.4153,4.4154,4.4154,4.4154,0,4.4286,4.428,4.4274,4.4265,4.426,4.4252,4.4244,4.4242,4.4227,4.4222,4.4214,4.4207,4.4195,4.4185,4.4174,4.4166,4.4157,4.4156,4.4155,4.4158,4.4163,4.4159,4.4147,4.4155,4.4155,4.4155,4.4155,4.4155,4.4297,4.4295,4.4284,4.4277,4.427,4.4262,4.4258,4.4249,4.4242,4.4231,4.4224,4.4216,4.4204,4.4188,4.4181,4.4173,4.4169,4.4169,4.4169,4.4169,4.417,4.4164,4.4171,4.4171,4.4171,4.4171,4.4171,0,4.4309,4.4302,4.4295,4.4284,4.4278,4.4271,4.4262,4.4257,4.425,4.424,4.4233,4.4222,4.4213,4.42,4.419,4.4186,4.4182,4.4184,4.4184,4.4182,4.4174,4.4175,4.4187,4.4187,4.4187,4.4187,4.4187,4.4187,4.4314,4.431,4.4303,4.4294,4.4286,4.4279,4.4274,4.4266,4.4259,4.4248,4.424,4.4232,4.4221,4.4209,4.42,4.4196,4.4193,4.4196,4.4191,4.4184,4.4182,4.4181,4.4182,4.4195,4.4195,4.4199,4.4199,4.4199]}]]